This demonstration page uses our WeatherBlox Daily Observations layout. Learn more.

Left ArrowRight Arrow

41.55636, -103.73856

Hourly Observations for February 27, 2016

Temp ( °F °C ) Dew Point ( °F °C ) Humidity (%) Winds ( mph kmh ) Pressure ( in mb ) Visibility ( mi km ) Precip ( " mm )
12:53 am 00:53 Clear 30 -1.1 18 -7.8 61 61 N 8 13 30.02 1017 10 16.0934 N/A
1:53 am 01:53 Clear 29 -1.7 17 -8.3 61 61 NNE 6 9 30 1016 10 16.0934 N/A
2:53 am 02:53 Clear 28 -2.2 18 -7.8 66 66 N 7 11 29.97 1015 10 16.0934 N/A
3:53 am 03:53 Clear 29 -1.7 17 -8.3 61 61 NE 3 6 29.94 1014 10 16.0934 N/A
4:53 am 04:53 Clear 30 -1.1 17 -8.3 58 58 N N/A 29.92 1013 10 16.0934 N/A
5:53 am 05:53 Clear 24 -4.4 15 -9.4 68 68 NNE 6 9 29.96 1015 10 16.0934 N/A
6:53 am 06:53 Sunny 29 -1.7 17 -8.3 61 61 N N/A 29.93 1014 10 16.0934 N/A
7:53 am 07:53 Sunny 39 3.9 20 -6.7 46 46 N N/A 29.88 1012 10 16.0934 N/A
8:53 am 08:53 Sunny 51 10.6 21 -6.1 31 31 NW 5 7 29.84 1010 10 16.0934 N/A
9:53 am 09:53 Sunny 58 14.4 21 -6.1 24 24 W 3 6 29.82 1010 10 16.0934 N/A
10:53 am 10:53 Sunny 67 19.4 21 -6.1 17 17 WNW 9 15 29.77 1008 10 16.0934 N/A
11:53 am 11:53 Sunny 71 21.7 14 -10 11 11 W 21 33 29.73 1007 10 16.0934 N/A
12:53 pm 12:53 Sunny 72 22.2 16 -8.9 12 12 WNW 22 35 29.7 1006 10 16.0934 N/A
1:53 pm 13:53 Sunny 67 19.4 20 -6.7 17 17 WNW 18 30 29.7 1006 10 16.0934 N/A
2:53 pm 14:53 Sunny 67 19.4 20 -6.7 17 17 WNW 17 28 29.68 1005 10 16.0934 N/A
3:53 pm 15:53 Sunny 64 17.8 21 -6.1 19 19 WNW 5 7 29.67 1005 10 16.0934 N/A
4:53 pm 16:53 Sunny 59 15 22 -5.6 24 24 WNW 5 7 29.66 1004 10 16.0934 N/A
5:53 pm 17:53 Clear 51 10.6 24 -4.4 35 35 NNW 10 17 29.72 1006 10 16.0934 N/A
6:53 pm 18:53 Clear 59 15 22 -5.6 24 24 W 20 31 29.7 1006 10 16.0934 N/A
7:53 pm 19:53 Mostly Clear 57 13.9 29 -1.7 34 34 W 29 46 29.71 1006 10 16.0934 N/A
8:53 pm 20:53 Mostly Clear 54 12.2 24 -4.4 31 31 W 25 41 29.71 1006 10 16.0934 N/A
9:53 pm 21:53 Clear 50 10 21 -6.1 32 32 WNW 18 30 29.73 1007 10 16.0934 N/A
10:53 pm 22:53 Cloudy 47 8.3 23 -5 39 39 W 17 28 29.72 1007 10 16.0934 N/A
11:53 pm 23:53 Clear 45 7.2 24 -4.4 44 44 WNW 17 28 29.74 1007 10 16.0934 N/A

Powered by AerisWeather